Location: Lipsett
(52.7836°N, 104.6863°W)
Time: 22:06:18
(UTC+00:00)

X-37B - Pass Details

Date: 25 August 2022
Orbit: 330 x 340 km, 45.0° (Epoch: 02 September)

Event Time Altitude Azimuth Distance (km) Brightness Sun altitude
Rises 02:43:44 0° 225° (SW) 2,091 4.5 -6.2°
Reaches altitude 10° 02:46:25 10° 197° (SSW) 1,260 3.1 -6.6°
Maximum altitude 02:47:53 13° 165° (SSE) 1,090 2.5 -6.8°
Drops below altitude 10° 02:49:22 10° 134° (SE) 1,264 2.6 -7.0°
Enters shadow 02:49:34 - 130° (SE) 1,310 2.6 -7.0°
